Location: Unspecified
(0.0000°N, 0.0000°E)
Time: 03:53:42
(UTC+00:00)

deb NOAA 5 - Pass Details

Date: 23 February 2026
Orbit: 1470 x 1835 km, 102.5° (Epoch: 10 March)

Event Time Altitude Azimuth Distance (km) Brightness Sun altitude
Rises 19:57:23 0° 145° (SE) 4,739 ? -25.6°
Enters shadow 19:58:54 - 141° (SE) 4,243 ? -26.0°
Exits shadow 20:16:02 - 9° (N) 3,724 ? -30.2°
Sets 20:18:38 0° 2° (N) 4,570 ? -30.8°
